TimeCDT,TemperatureF,Dew PointF,Humidity,Sea Level PressureIn,VisibilityMPH,Wind Direction,Wind SpeedMPH,Gust SpeedMPH,PrecipitationIn,Events,Conditions,WindDirDegrees,DateUTC
12:15 AM,48.2,30.2,50,30.23,10.0,East,5.8,-,N/A,,Clear,90,2013-05-27 05:15:00
12:35 AM,48.2,30.2,50,30.23,10.0,East,4.6,-,N/A,,Clear,90,2013-05-27 05:35:00
12:55 AM,48.2,30.2,50,30.22,10.0,East,6.9,-,N/A,,Clear,90,2013-05-27 05:55:00
1:15 AM,48.2,30.2,50,30.21,10.0,East,6.9,-,N/A,,Clear,90,2013-05-27 06:15:00
1:35 AM,48.2,30.2,50,30.20,10.0,East,5.8,-,N/A,,Clear,100,2013-05-27 06:35:00
1:55 AM,48.2,30.2,50,30.18,10.0,East,6.9,-,N/A,,Clear,100,2013-05-27 06:55:00
2:15 AM,48.2,30.2,50,30.17,10.0,East,6.9,-,N/A,,Clear,100,2013-05-27 07:15:00
2:35 AM,46.4,30.2,53,30.19,10.0,ESE,5.8,-,N/A,,Clear,110,2013-05-27 07:35:00
2:55 AM,46.4,30.2,53,30.18,10.0,ESE,6.9,-,N/A,,Clear,110,2013-05-27 07:55:00
3:15 AM,46.4,32.0,57,30.19,10.0,East,6.9,-,N/A,,Clear,100,2013-05-27 08:15:00
3:35 AM,46.4,32.0,57,30.18,10.0,East,8.1,-,N/A,,Clear,100,2013-05-27 08:35:00
3:55 AM,46.4,32.0,57,30.17,10.0,ESE,9.2,-,N/A,,Clear,110,2013-05-27 08:55:00
4:15 AM,44.6,32.0,61,30.18,10.0,ESE,8.1,-,N/A,,Clear,110,2013-05-27 09:15:00
4:35 AM,44.6,32.0,61,30.18,10.0,East,8.1,-,N/A,,Clear,100,2013-05-27 09:35:00
4:55 AM,44.6,33.8,66,30.18,10.0,East,8.1,-,N/A,,Clear,100,2013-05-27 09:55:00
5:15 AM,44.6,33.8,66,30.18,10.0,East,9.2,-,N/A,,Clear,100,2013-05-27 10:15:00
5:35 AM,44.6,35.6,71,30.18,10.0,ESE,8.1,-,N/A,,Clear,110,2013-05-27 10:35:00
5:55 AM,44.6,35.6,71,30.17,10.0,ESE,6.9,-,N/A,,Clear,110,2013-05-27 10:55:00
6:15 AM,46.4,37.4,71,30.16,10.0,East,8.1,-,N/A,,Clear,100,2013-05-27 11:15:00
6:35 AM,46.4,37.4,71,30.17,10.0,ESE,6.9,-,N/A,,Clear,110,2013-05-27 11:35:00
6:55 AM,48.2,37.4,66,30.16,10.0,ESE,8.1,-,N/A,,Clear,110,2013-05-27 11:55:00
7:15 AM,48.2,39.2,71,30.16,10.0,ESE,9.2,-,N/A,,Clear,120,2013-05-27 12:15:00
7:35 AM,51.8,39.2,62,30.17,10.0,ESE,9.2,-,N/A,,Clear,120,2013-05-27 12:35:00
7:55 AM,53.6,39.2,58,30.18,10.0,ESE,9.2,-,N/A,,Clear,120,2013-05-27 12:55:00
8:15 AM,53.6,39.2,58,30.18,10.0,SE,8.1,-,N/A,,Clear,130,2013-05-27 13:15:00
8:35 AM,55.4,39.2,54,30.17,10.0,ESE,11.5,-,N/A,,Clear,120,2013-05-27 13:35:00
8:55 AM,55.4,39.2,54,30.16,10.0,SE,10.4,-,N/A,,Clear,130,2013-05-27 13:55:00
9:15 AM,55.4,39.2,54,30.15,10.0,SE,10.4,-,N/A,,Clear,130,2013-05-27 14:15:00
9:35 AM,57.2,39.2,51,30.14,10.0,SE,10.4,-,N/A,,Clear,140,2013-05-27 14:35:00
9:55 AM,57.2,39.2,51,30.14,10.0,SSE,13.8,19.6,N/A,,Clear,150,2013-05-27 14:55:00
10:15 AM,59.0,39.2,48,30.14,10.0,South,13.8,18.4,N/A,,Clear,170,2013-05-27 15:15:00
10:35 AM,59.0,39.2,48,30.14,10.0,SSE,10.4,17.3,N/A,,Clear,150,2013-05-27 15:35:00
10:55 AM,60.8,39.2,45,30.13,10.0,SSE,13.8,-,N/A,,Scattered Clouds,160,2013-05-27 15:55:00
11:15 AM,59.0,39.2,48,30.13,10.0,SE,13.8,-,N/A,,Overcast,140,2013-05-27 16:15:00
11:35 AM,60.8,39.2,45,30.13,10.0,SSE,12.7,-,N/A,,Overcast,150,2013-05-27 16:35:00
11:55 AM,60.8,39.2,45,30.13,10.0,South,13.8,-,N/A,,Overcast,170,2013-05-27 16:55:00
12:15 PM,60.8,39.2,45,30.13,10.0,South,12.7,16.1,N/A,,Mostly Cloudy,170,2013-05-27 17:15:00
12:35 PM,60.8,39.2,45,30.13,10.0,SSE,10.4,-,N/A,,Overcast,160,2013-05-27 17:35:00
12:55 PM,60.8,39.2,45,30.13,10.0,SSE,9.2,-,N/A,,Mostly Cloudy,150,2013-05-27 17:55:00
1:15 PM,62.6,39.2,42,30.12,10.0,SSE,12.7,-,N/A,,Mostly Cloudy,160,2013-05-27 18:15:00
1:35 PM,62.6,39.2,42,30.11,10.0,SSE,9.2,-,N/A,,Overcast,160,2013-05-27 18:35:00
1:55 PM,60.8,39.2,45,30.11,10.0,SSE,8.1,-,N/A,,Overcast,150,2013-05-27 18:55:00
2:15 PM,60.8,39.2,45,30.10,10.0,SE,6.9,-,N/A,,Overcast,130,2013-05-27 19:15:00
2:35 PM,60.8,39.2,45,30.09,10.0,ESE,6.9,-,N/A,,Overcast,120,2013-05-27 19:35:00
2:55 PM,60.8,41.0,48,30.08,10.0,ESE,6.9,-,N/A,,Overcast,110,2013-05-27 19:55:00
3:15 PM,60.8,39.2,45,30.07,10.0,East,8.1,-,N/A,,Overcast,100,2013-05-27 20:15:00
3:35 PM,60.8,39.2,45,30.06,10.0,East,5.8,-,N/A,,Overcast,100,2013-05-27 20:35:00
3:55 PM,60.8,39.2,45,30.06,10.0,ESE,5.8,-,N/A,,Overcast,120,2013-05-27 20:55:00
4:15 PM,60.8,39.2,45,30.05,10.0,East,4.6,-,N/A,,Mostly Cloudy,100,2013-05-27 21:15:00
4:35 PM,60.8,39.2,45,30.04,10.0,ESE,8.1,-,N/A,,Mostly Cloudy,120,2013-05-27 21:35:00
4:55 PM,60.8,39.2,45,30.04,10.0,SE,5.8,-,N/A,,Scattered Clouds,130,2013-05-27 21:55:00
5:15 PM,60.8,39.2,45,30.04,10.0,SSE,9.2,-,N/A,,Scattered Clouds,160,2013-05-27 22:15:00
5:35 PM,60.8,39.2,45,30.04,10.0,SSE,5.8,-,N/A,,Overcast,160,2013-05-27 22:35:00
5:55 PM,60.8,39.2,45,30.03,10.0,ESE,4.6,-,N/A,,Overcast,110,2013-05-27 22:55:00
6:15 PM,59.0,39.2,48,30.03,10.0,East,3.5,-,N/A,,Overcast,90,2013-05-27 23:15:00
6:35 PM,59.0,41.0,51,30.01,10.0,East,5.8,-,N/A,,Overcast,80,2013-05-27 23:35:00
6:55 PM,59.0,39.2,48,30.00,10.0,East,4.6,-,N/A,,Mostly Cloudy,90,2013-05-27 23:55:00
7:15 PM,59.0,39.2,48,30.00,10.0,NE,3.5,-,N/A,,Overcast,50,2013-05-28 00:15:00
7:35 PM,59.0,39.2,48,30.00,10.0,Calm,Calm,-,N/A,,Overcast,0,2013-05-28 00:35:00
7:55 PM,59.0,41.0,51,30.00,10.0,NE,3.5,-,N/A,,Overcast,40,2013-05-28 00:55:00
8:15 PM,57.2,41.0,55,30.00,10.0,Calm,Calm,-,N/A,,Overcast,0,2013-05-28 01:15:00
8:35 PM,57.2,41.0,55,30.00,5.0,NNE,3.5,-,N/A,,Overcast,30,2013-05-28 01:35:00
8:55 PM,57.2,42.8,59,30.00,10.0,NNE,3.5,-,N/A,,Overcast,30,2013-05-28 01:55:00
9:15 PM,57.2,41.0,55,29.99,10.0,NE,3.5,-,N/A,,Overcast,50,2013-05-28 02:15:00
9:35 PM,57.2,41.0,55,29.98,10.0,Calm,Calm,-,N/A,,Overcast,0,2013-05-28 02:35:00
9:55 PM,55.4,42.8,63,29.98,10.0,Calm,Calm,-,N/A,,Overcast,0,2013-05-28 02:55:00
10:15 PM,57.2,39.2,51,29.97,10.0,Calm,Calm,-,N/A,,Overcast,0,2013-05-28 03:15:00
10:35 PM,55.4,42.8,63,29.96,10.0,South,3.5,-,N/A,,Mostly Cloudy,190,2013-05-28 03:35:00
10:55 PM,55.4,42.8,63,29.96,10.0,East,4.6,-,N/A,,Scattered Clouds,80,2013-05-28 03:55:00
11:15 PM,55.4,39.2,54,29.96,10.0,ESE,3.5,-,N/A,,Clear,110,2013-05-28 04:15:00
11:35 PM,53.6,42.8,67,29.96,10.0,SE,4.6,-,N/A,,Mostly Cloudy,130,2013-05-28 04:35:00
11:55 PM,51.8,41.0,67,29.95,10.0,SE,5.8,-,N/A,,Overcast,130,2013-05-28 04:55:00